User: anonymous   Login
Location: Champs
(48.8539°N, 2.6040°E)
Time: 13:33:03
(UTC+00:00)
Language:

COSMOS 2251 DEB - Orbit

View from above orbital plane
View from above orbital plane
View from above satellite
View from above satellite

Ground track
Ground track

The orbit data is extracted from the following two-line orbital elements,

1 40230U 93036BVK 23083.81173686  .00005538  00000-0  17403-2 0  9994
2 40230  74.0458 276.3531 0021926 220.4789 149.5413 14.40566255446186
Epoch (UTC): 24 March 2023 19:28:54
Eccentricity: 0.0021926
inclination: 74.0458°
perigee height: 741 km
apogee height: 772 km
right ascension of ascending node: 276.3531°
argument of perigee: 220.4789°
revolutions per day: 14.40566255
mean anomaly at epoch: 149.5413°
orbit number at epoch: 44618

The dashed part of the orbit path shows where the satellite is in the earth's shadow,  

DLR